ボリソフ彗星

C/2024 V1 ( Borisov )

English version
Home page
Updated on August 30, 2025

---------------------------------------------------------------------

・ プロフィール

発見日 2024年11月8日
発見光度 19.3等
発見者 Gennadii Vladimirovich Borisov (Nauchnij, Crimea)

・ 写真集

・ 軌道要素

Epoch 2025 May 5.0 TT = JDT 2460800.5
T 2025 Apr. 4.11180 TT                                  Pike
q   2.3184620            (2000.0)            P               Q
z  +0.0042736      Peri.  168.66765     -0.77331896     -0.46615943
 +/-0.0000040      Node   328.19454     +0.49908589     -0.02956149
e   0.9900918      Incl.   54.62512     +0.39101287     -0.88420671
From 422 observations 2024 Oct. 28-2025 May 28, mean residual 0".5.

・ 光度変化

        m1 = 12.0 + 5 logΔ + 12.0 log r

---------------------------------------------------------------------

軌道要素はM.P.E.C. 2025-M120に掲載されたものです。
光度グラフはComet for Windowsで作成したものです。

---------------------------------------------------------------------

Copyright(C) Seiichi Yoshida (comet@aerith.net). All rights reserved.